EN

Hourly Weather Haarlem

Today, 13 June, Sunday

Time Temperature Precipitation Wind Pressure Humidity
00:00 +10°C° 0 mm 2 mps 769 mmHg 84%
01:00 +10°C° 0 mm 2 mps 769 mmHg 84%
02:00 +10°C° 0 mm 2 mps 769 mmHg 84%
03:00 +11°C° 0 mm 1 mps 769 mmHg 85%
04:00 +12°C° 0 mm 1 mps 770 mmHg 79%
05:00 +13°C° 0 mm 1 mps 770 mmHg 74%
06:00 +15°C° 0 mm 1 mps 770 mmHg 68%
07:00 +16°C° 0 mm 1 mps 770 mmHg 62%
08:00 +19°C° 0 mm 1 mps 771 mmHg 55%
09:00 +20°C° 0 mm 1 mps 771 mmHg 49%
10:00 +20°C° 0 mm 2 mps 771 mmHg 48%
11:00 +21°C° 0 mm 2 mps 771 mmHg 46%
12:00 +21°C° 0 mm 2 mps 771 mmHg 44%
13:00 +23°C° 0 mm 2 mps 770 mmHg 45%
14:00 +23°C° 0 mm 2 mps 770 mmHg 45%
15:00 +23°C° 0 mm 2 mps 770 mmHg 46%
16:00 +21°C° 0 mm 2 mps 769 mmHg 50%
17:00 +20°C° 0 mm 2 mps 769 mmHg 53%
18:00 +21°C° 0 mm 1 mps 769 mmHg 57%
19:00 +19°C° 0 mm 1 mps 769 mmHg 63%
20:00 +18°C° 0 mm 1 mps 769 mmHg 69%
21:00 +15°C° 0 mm 1 mps 768 mmHg 74%
22:00 +15°C° 0 mm 1 mps 768 mmHg 76%
23:00 +15°C° 0 mm 2 mps 768 mmHg 78%

Tomorrow, 14 June, Monday

Time Temperature Precipitation Wind Pressure Humidity
00:00 +14°C° 0 mm 2 mps 768 mmHg 80%
01:00 +14°C° 0 mm 2 mps 767 mmHg 80%
02:00 +14°C° 0 mm 2 mps 767 mmHg 81%
03:00 +13°C° 0 mm 3 mps 766 mmHg 81%
04:00 +14°C° 0 mm 3 mps 766 mmHg 76%
05:00 +16°C° 0 mm 3 mps 766 mmHg 70%
06:00 +18°C° 0 mm 4 mps 766 mmHg 65%
07:00 +19°C° 0 mm 4 mps 765 mmHg 59%
08:00 +21°C° 0 mm 4 mps 765 mmHg 53%
09:00 +23°C° 0 mm 4 mps 765 mmHg 47%
10:00 +23°C° 0 mm 4 mps 765 mmHg 46%
11:00 +25°C° 0 mm 4 mps 765 mmHg 45%
12:00 +26°C° 0 mm 4 mps 765 mmHg 44%
13:00 +25°C° 0 mm 4 mps 765 mmHg 47%
14:00 +25°C° 0 mm 4 mps 764 mmHg 49%
15:00 +25°C° 0 mm 4 mps 764 mmHg 52%
16:00 +22°C° 0 mm 4 mps 764 mmHg 58%
17:00 +21°C° 0 mm 4 mps 764 mmHg 64%
18:00 +20°C° 0 mm 4 mps 764 mmHg 71%
19:00 +19°C° 0 mm 3 mps 764 mmHg 75%
20:00 +18°C° 0 mm 3 mps 765 mmHg 80%
21:00 +17°C° 0 mm 3 mps 765 mmHg 84%
22:00 +17°C° 0 mm 3 mps 765 mmHg 83%
23:00 +17°C° 0 mm 3 mps 765 mmHg 82%

Day after tomorrow, 15 June, Tuesday

Time Temperature Precipitation Wind Pressure Humidity
00:00 +16°C° 0 mm 3 mps 765 mmHg 81%
01:00 +16°C° 0 mm 3 mps 765 mmHg 80%
02:00 +16°C° 0 mm 3 mps 765 mmHg 79%
03:00 +16°C° 0 mm 3 mps 765 mmHg 78%
04:00 +16°C° 0 mm 3 mps 765 mmHg 75%
05:00 +16°C° 0 mm 3 mps 766 mmHg 72%
06:00 +16°C° 0 mm 3 mps 766 mmHg 68%
07:00 +17°C° 0 mm 3 mps 766 mmHg 63%
08:00 +19°C° 0 mm 3 mps 766 mmHg 57%
09:00 +20°C° 0 mm 2 mps 766 mmHg 51%
10:00 +20°C° 0 mm 3 mps 766 mmHg 49%
11:00 +21°C° 0 mm 3 mps 766 mmHg 47%
12:00 +22°C° 0 mm 3 mps 766 mmHg 45%
13:00 +22°C° 0 mm 3 mps 765 mmHg 46%
14:00 +22°C° 0 mm 4 mps 765 mmHg 47%
15:00 +22°C° 0 mm 4 mps 765 mmHg 48%
16:00 +21°C° 0 mm 4 mps 765 mmHg 52%
17:00 +20°C° 0 mm 4 mps 764 mmHg 56%
18:00 +19°C° 0 mm 3 mps 764 mmHg 60%
19:00 +17°C° 0 mm 3 mps 764 mmHg 65%
20:00 +16°C° 0 mm 3 mps 764 mmHg 70%
21:00 +15°C° 0 mm 2 mps 764 mmHg 74%
22:00 +15°C° 0 mm 2 mps 764 mmHg 78%
23:00 +14°C° 0 mm 2 mps 764 mmHg 82%

16 June, Wednesday

Time Temperature Precipitation Wind Pressure Humidity
00:00 +14°C° 0 mm 2 mps 763 mmHg 85%
01:00 +14°C° 0 mm 2 mps 763 mmHg 86%
02:00 +14°C° 0 mm 2 mps 763 mmHg 86%
03:00 +14°C° 0 mm 2 mps 762 mmHg 87%
04:00 +15°C° 0 mm 2 mps 762 mmHg 82%
05:00 +16°C° 0 mm 2 mps 762 mmHg 78%
06:00 +18°C° 0 mm 2 mps 762 mmHg 74%
07:00 +20°C° 0 mm 1 mps 762 mmHg 68%
08:00 +22°C° 0 mm 1 mps 761 mmHg 62%
09:00 +24°C° 0 mm 1 mps 761 mmHg 56%
10:00 +25°C° 0 mm 1 mps 761 mmHg 54%
11:00 +26°C° 0 mm 2 mps 761 mmHg 52%
12:00 +27°C° 0 mm 2 mps 760 mmHg 50%
13:00 +27°C° 0 mm 2 mps 760 mmHg 49%
14:00 +27°C° 0 mm 3 mps 760 mmHg 48%
15:00 +28°C° 0 mm 3 mps 760 mmHg 47%
16:00 +27°C° 0 mm 3 mps 759 mmHg 53%
17:00 +26°C° 0 mm 3 mps 759 mmHg 58%
18:00 +25°C° 0 mm 3 mps 759 mmHg 63%
19:00 +22°C° 0 mm 3 mps 759 mmHg 70%
20:00 +21°C° 0 mm 3 mps 759 mmHg 76%
21:00 +19°C° 0 mm 3 mps 759 mmHg 83%
22:00 +19°C° 0 mm 3 mps 759 mmHg 84%
23:00 +19°C° 0 mm 2 mps 759 mmHg 85%

17 June, Thursday

Time Temperature Precipitation Wind Pressure Humidity
00:00 +20°C° 0 mm 2 mps 759 mmHg 86%
01:00 +20°C° 0 mm 2 mps 758 mmHg 86%
02:00 +20°C° 0 mm 3 mps 758 mmHg 86%
03:00 +20°C° 0 mm 3 mps 758 mmHg 86%
04:00 +21°C° 0 mm 3 mps 758 mmHg 82%
05:00 +22°C° 0 mm 3 mps 758 mmHg 78%
06:00 +24°C° 0 mm 2 mps 757 mmHg 74%
07:00 +26°C° 0 mm 3 mps 757 mmHg 68%
08:00 +27°C° 0 mm 3 mps 757 mmHg 61%
09:00 +29°C° 0 mm 3 mps 757 mmHg 54%
10:00 +30°C° 0 mm 3 mps 756 mmHg 49%
11:00 +31°C° 0 mm 3 mps 756 mmHg 45%
12:00 +33°C° 0 mm 4 mps 756 mmHg 40%
13:00 +34°C° 0.1 mm 3 mps 755 mmHg 41%
14:00 +34°C° 0.1 mm 3 mps 755 mmHg 41%
15:00 +34°C° 0.1 mm 3 mps 755 mmHg 42%
16:00 +31°C° 1.3 mm 3 mps 755 mmHg 54%
17:00 +28°C° 1.3 mm 3 mps 755 mmHg 66%
18:00 +26°C° 1.3 mm 4 mps 756 mmHg 78%
19:00 +24°C° 0.8 mm 3 mps 756 mmHg 83%
20:00 +22°C° 0.8 mm 3 mps 756 mmHg 89%
21:00 +20°C° 0.8 mm 2 mps 757 mmHg 94%
22:00 +20°C° 0 mm 2 mps 757 mmHg 94%
23:00 +19°C° 0 mm 2 mps 757 mmHg 94%

18 June, Friday

Time Temperature Precipitation Wind Pressure Humidity
00:00 +19°C° 0 mm 2 mps 757 mmHg 94%
01:00 +19°C° 0 mm 2 mps 757 mmHg 94%
02:00 +18°C° 0 mm 2 mps 757 mmHg 94%
03:00 +18°C° 0 mm 2 mps 757 mmHg 95%
04:00 +18°C° 0 mm 2 mps 757 mmHg 92%
05:00 +19°C° 0 mm 2 mps 757 mmHg 90%
06:00 +21°C° 0 mm 1 mps 757 mmHg 87%
07:00 +22°C° 0.1 mm 1 mps 757 mmHg 84%
08:00 +23°C° 0.1 mm 1 mps 757 mmHg 81%
09:00 +24°C° 0.1 mm 2 mps 757 mmHg 78%
10:00 +25°C° 0.1 mm 2 mps 757 mmHg 74%
11:00 +26°C° 0.1 mm 2 mps 757 mmHg 70%
12:00 +27°C° 0.1 mm 2 mps 756 mmHg 66%
13:00 +27°C° 0.7 mm 2 mps 756 mmHg 69%
14:00 +26°C° 0.7 mm 2 mps 756 mmHg 72%
15:00 +26°C° 0.7 mm 2 mps 756 mmHg 76%
16:00 +25°C° 1 mm 2 mps 755 mmHg 80%
17:00 +24°C° 1 mm 2 mps 755 mmHg 84%
18:00 +23°C° 1 mm 2 mps 754 mmHg 89%
19:00 +23°C° 1.3 mm 2 mps 755 mmHg 91%
20:00 +21°C° 1.3 mm 3 mps 755 mmHg 93%
21:00 +20°C° 1.3 mm 3 mps 755 mmHg 95%
22:00 +20°C° 0 mm 3 mps 755 mmHg 95%
23:00 +19°C° 0 mm 4 mps 755 mmHg 95%
Show more